EHI
14 14 12 12 14 15 14 12 10 8 5 4 5 7 8 8 7 6 5 5 6 8 8 6 5 3 2 1 0 0 0 1 1 1 0 0 0 0 0 0 0 1 1
17 16 14 14 14 14 14 13 12 9 7 6 7 7 8 8 8 8 6 7 7 7 7 7 5 3 2 2 1 1 1 1 1 1 0 0 0 0 0 0 0 0 1
20 19 17 15 14 14 14 14 14 12 10 9 9 9 8 9 10 10 10 9 8 7 6 6 5 4 4 4 3 4 4 3 2 2 1 0 0 0 0 0 0 0 0
22 21 19 17 16 15 15 15 14 12 11 10 9 9 8 8 11 12 12 11 9 7 6 5 4 3 4 4 4 4 4 5 5 3 1 0 0 0 0 0 0 0 0
23 22 20 18 17 16 15 14 13 11 10 9 7 7 7 8 10 12 12 12 10 8 7 5 4 3 3 3 3 3 4 5 6 4 1 0 0 0 0 0 0 0 0
25 23 21 19 18 16 14 13 11 10 8 7 6 6 6 6 8 9 10 11 10 9 7 5 4 3 3 3 3 3 3 4 6 5 3 1 0 0 0 0 0 0 0
25 23 20 19 19 16 13 11 10 10 8 8 7 7 6 5 6 6 6 8 8 8 6 5 4 3 3 3 3 2 2 3 4 4 3 2 1 1 1 0 0 0 0
23 21 19 19 17 14 11 10 10 10 10 9 9 9 7 5 3 3 3 5 6 6 6 5 5 4 3 3 3 3 2 2 1 2 3 3 2 2 2 1 0 0 0
24 21 18 17 16 13 11 10 11 12 12 11 10 10 9 6 3 1 2 4 6 6 5 4 4 3 3 3 3 3 3 2 1 1 1 2 1 1 2 1 0 0 0
22 20 18 18 17 16 15 14 13 13 12 11 11 10 9 6 3 1 2 3 5 5 4 3 3 3 3 3 3 3 3 3 2 1 0 0 0 0 1 1 0 0 0
17 17 18 19 19 19 20 18 15 14 13 12 11 11 9 5 2 2 2 3 4 4 4 4 3 3 3 2 2 3 3 3 2 1 0 0 0 0 0 0 0 0 0
12 13 16 18 19 21 21 19 15 13 12 12 11 10 9 5 2 2 2 2 2 3 5 5 4 3 2 1 1 2 2 1 1 1 0 0 0 0 0 0 0 0 0
9 11 13 15 18 19 20 18 15 13 13 12 10 10 8 5 3 2 1 1 1 2 4 5 4 2 1 0 0 1 1 0 0 0 0 0 0 0 0 0 0 0 0
7 9 11 13 15 17 18 18 17 16 15 14 12 11 9 6 3 2 1 1 1 2 3 4 3 2 1 0 0 0 0 0 0 0 0 0 0 0 0 0 0 0 0
6 7 9 11 13 15 16 16 16 15 14 13 12 11 10 6 3 2 2 1 2 2 3 3 3 3 2 1 0 0 0 0 0 0 0 0 0 0 0 0 0 0 0
7 7 9 10 12 13 13 12 11 9 8 7 8 9 7 4 2 1 1 0 1 2 3 3 3 3 2 1 0 0 0 0 0 0 0 0 0 0 0 0 0 0 0
6 7 8 9 11 12 11 10 9 7 4 3 3 4 3 2 1 0 0 0 0 1 3 3 3 3 3 1 0 0 0 0 0 0 0 0 0 0 0 0 0 0 0
4 5 5 7 8 9 10 10 9 8 6 3 2 1 1 0 0 0 0 0 0 1 2 3 3 3 3 2 1 0 0 0 0 0 0 0 0 0 0 0 0 0 0
3 3 3 4 5 6 8 9 10 9 8 5 2 1 1 0 0 0 0 0 0 1 2 2 2 2 2 2 1 0 0 0 0 0 0 0 0 0 0 0 0 0 0
3 3 3 3 4 4 6 8 9 9 8 6 4 3 2 1 0 0 0 0 0 0 1 1 1 1 1 1 0 0 0 0 0 0 0 0 0 0 0 0 0 0 0
3 3 3 3 4 4 4 5 7 8 7 6 5 4 2 1 0 0 0 0 0 0 0 0 0 0 0 0 0 0 0 0 0 0 0 0 0 0 0 0 0 0 0
3 3 3 3 3 4 3 4 5 6 5 5 5 3 1 0 0 0 0 0 0 0 0 0 0 0 0 0 0 0 0 0 0 0 0 0 0 0 0 0 0 0 0
3 3 3 3 3 3 3 3 4 5 4 3 4 2 1 0 0 0 0 0 0 0 0 0 0 0 0 0 0 0 0 0 0 0 0 0 0 0 0 0 0 0 0
3 3 3 3 3 3 3 4 4 4 2 1 1 1 0 0 0 0 0 0 0 0 0 0 0 0 0 0 0 0 0 0 0 0 0 0 0 0 0 0 0 0 0
3 3 3 3 3 3 4 4 4 3 2 1 0 0 0 0 0 0 0 0 0 0 0 0 0 0 0 0 0 0 0 0 0 0 0 0 0 0 0 0 0 0 0
3 3 3 3 3 3 4 4 4 3 2 1 0 0 0 0 0 0 0 0 0 0 0 0 0 0 0 0 0 0 0 0 0 0 0 0 0 0 0 0 0 0 0
Wind_Speed
5 5 4 4 4 4 3 4 3 3 3 3 3 3 2 2 2 2 2 1 2 2 2 2 2 1 1 1 1 1 1 2 2 2 1 1 1 2 1 1 2 2 3
6 5 4 4 4 3 3 4 4 4 3 3 3 2 2 2 2 2 2 1 2 2 2 2 2 1 1 1 1 1 2 2 3 2 1 1 2 2 2 2 2 2 2
6 5 4 4 3 4 3 3 3 3 2 2 2 3 3 2 2 2 2 2 2 2 3 3 3 2 2 2 2 2 2 2 2 2 2 1 1 1 1 1 1 1 2
6 6 5 5 4 4 3 3 3 2 2 2 2 3 3 3 2 2 2 2 3 3 3 3 3 3 4 3 2 2 2 1 1 2 2 1 1 1 1 1 1 1 2
6 5 5 5 4 3 3 3 2 2 2 2 2 2 2 2 3 3 3 3 2 2 2 2 3 4 4 4 3 2 2 2 2 2 2 1 1 1 2 2 2 1 2
6 5 5 4 3 3 3 3 3 2 2 2 2 2 2 2 3 4 3 2 2 2 2 2 2 2 3 3 3 4 4 4 3 3 2 3 3 3 2 2 2 1 2
5 5 4 4 3 3 3 2 2 3 2 2 2 2 2 3 4 4 4 3 2 3 3 2 2 2 1 1 1 2 3 5 6 4 4 5 4 4 3 3 3 3 4
4 4 4 4 4 3 3 3 3 2 2 2 3 3 3 4 4 5 4 3 2 3 3 3 3 2 2 1 1 1 2 3 4 4 5 6 5 5 5 5 5 3 2
4 4 4 4 4 4 4 4 3 3 3 3 3 3 3 4 5 6 4 2 2 3 3 3 3 3 4 3 2 2 3 3 4 4 5 6 7 7 5 2 2 2 3
5 5 4 4 4 4 5 4 3 3 3 3 3 3 4 4 6 6 5 2 3 2 2 2 3 4 4 3 3 3 3 4 3 3 3 3 3 5 6 6 5 4 3
4 4 3 4 4 4 4 3 3 3 2 3 3 3 3 4 5 6 6 3 3 2 2 2 2 4 4 4 4 4 6 5 3 2 2 2 2 2 3 4 5 5 5
3 3 3 4 4 3 3 3 2 3 3 3 2 3 2 2 3 3 4 5 4 3 3 2 3 4 4 4 4 4 5 3 1 1 2 2 2 3 3 3 4 5 6
2 3 3 3 3 3 3 3 2 2 3 3 2 3 3 2 2 4 4 5 4 3 3 4 4 4 4 3 4 4 3 2 2 2 3 3 3 3 2 2 2 3 3
3 3 3 3 2 2 2 3 3 3 3 3 3 3 3 2 2 2 2 3 3 3 2 3 3 3 2 3 3 2 2 3 3 3 3 3 2 2 2 1 1 1 1
3 3 3 3 3 2 2 3 4 4 5 5 5 4 4 4 5 6 4 3 3 3 1 0 0 0 1 2 2 2 2 2 3 2 2 2 2 2 2 1 1 1 1
2 3 3 3 3 2 2 2 3 4 5 7 7 6 5 7 7 8 8 7 6 5 3 2 2 2 2 3 2 2 2 2 2 2 2 2 2 2 2 1 1 1 2
3 3 2 3 3 3 3 3 3 3 2 3 5 7 7 7 8 9 8 7 6 6 3 3 3 3 3 3 3 2 3 3 2 2 2 2 2 2 2 2 2 2 2
3 3 3 3 3 4 4 4 3 3 3 3 4 6 7 7 8 8 7 4 2 3 4 4 4 4 3 3 3 2 2 2 2 2 2 2 2 2 2 2 2 3 3
3 2 3 3 3 3 4 3 3 4 3 3 2 3 5 5 5 5 5 4 4 4 4 4 4 4 3 3 3 3 3 2 3 2 2 3 3 2 2 3 3 4 3
3 5 3 3 3 3 3 3 3 4 4 4 4 4 2 2 2 3 4 4 4 4 4 4 4 4 4 3 3 2 2 2 2 2 3 3 2 2 3 4 3 3 3
3 3 4 3 3 3 3 3 4 4 4 4 5 5 6 4 5 5 4 4 5 5 5 4 4 3 3 3 3 3 3 3 2 2 2 2 2 2 2 3 3 3 3
3 3 3 3 3 3 3 3 3 3 4 4 3 3 7 4 3 3 4 4 4 4 4 4 4 3 3 3 4 3 3 3 2 2 2 2 2 2 2 2 2 2 3
3 3 3 3 3 4 3 3 3 3 3 3 3 3 3 4 4 4 4 4 3 3 3 3 3 3 2 3 3 3 3 3 3 3 3 2 2 2 2 2 3 3 3
3 3 3 3 3 3 3 3 2 2 3 3 3 3 3 3 3 4 3 3 3 3 2 2 3 4 4 3 2 2 2 3 3 3 4 4 3 3 3 3 3 4 4
3 3 3 3 3 3 2 2 2 2 2 2 2 2 2 2 1 1 1 2 2 2 2 2 2 2 3 3 2 2 3 3 3 3 3 3 3 4 3 4 4 4 4
2 2 2 2 2 2 2 2 2 2 2 1 1 1 1 1 1 1 0 0 1 1 1 1 2 2 2 2 2 2 2 2 3 3 2 2 3 3 3 3 4 4 4
Wind_Direction
182 180 177 179 182 179 182 193 193 198 203 205 207 206 208 211 210 207 218 210 206 234 236 207 225 217 205 226 197 177 183 163 199 256 243 242 222 216 192 191 191 198 216
177 172 175 174 177 181 196 207 203 204 208 210 207 203 210 213 209 206 214 215 209 225 233 220 238 226 219 234 211 210 211 195 181 225 259 238 228 213 196 196 203 198 209
169 169 173 176 176 186 197 202 203 208 214 211 198 202 213 215 216 215 207 219 232 232 226 218 226 206 232 242 223 216 219 218 179 182 231 238 232 212 180 228 232 224 221
168 169 177 187 191 196 196 193 197 199 199 215 218 215 212 211 214 219 218 230 241 242 237 225 222 213 222 226 225 219 213 209 196 184 213 231 242 235 157 191 239 242 243
166 173 189 194 193 194 192 194 196 201 208 212 215 230 227 215 217 216 220 224 232 249 259 249 238 228 222 219 220 214 201 204 202 203 220 226 236 211 212 207 208 234 256
170 184 191 189 189 193 197 196 196 206 215 202 204 216 240 238 223 218 215 227 224 228 245 262 263 251 239 241 240 226 202 201 212 211 220 221 229 219 216 209 201 204 263
178 184 186 185 190 200 205 203 212 216 214 214 219 209 228 240 230 223 216 210 221 229 231 238 253 253 234 240 261 267 246 236 216 206 217 228 223 217 204 215 212 210 230
183 190 189 188 199 205 200 209 220 214 213 222 231 230 234 248 239 227 222 217 232 241 233 221 216 234 235 208 226 278 275 259 239 223 220 230 227 220 209 210 214 224 255
179 189 197 195 198 201 208 220 221 210 221 226 230 228 232 250 244 236 224 216 233 246 244 232 211 212 228 210 200 243 275 279 274 254 237 236 238 233 217 188 193 193 250
194 197 196 194 194 205 214 221 216 207 220 228 239 235 230 242 246 237 220 202 221 240 258 251 220 215 227 218 206 218 248 263 271 290 284 273 259 242 225 205 201 202 215
197 190 193 199 203 206 207 213 213 211 217 231 245 249 239 239 246 241 223 203 210 223 231 245 243 231 239 243 235 222 235 242 243 242 258 272 275 259 237 218 205 200 207
179 182 197 204 208 202 195 212 210 201 211 235 250 268 264 246 225 227 214 208 204 206 227 234 237 241 250 255 255 251 247 233 213 223 248 257 260 264 256 237 220 217 217
179 194 204 207 211 200 196 205 208 205 211 227 231 247 266 264 244 229 208 203 201 204 232 243 248 253 252 248 250 257 239 203 194 217 239 248 249 252 254 257 255 237 237
198 217 214 205 214 218 213 204 204 211 215 222 222 232 243 247 236 228 217 209 211 225 251 259 255 246 245 252 264 263 226 208 205 221 233 247 260 264 257 246 244 238 247
209 216 214 211 209 221 232 227 219 221 213 210 220 215 214 231 233 212 201 207 204 210 196 242 325 310 279 283 284 265 239 217 221 231 226 236 249 256 266 262 230 206 207
215 227 219 213 214 213 220 266 278 246 238 225 220 212 221 223 215 208 209 212 209 187 163 198 221 229 234 243 257 266 247 228 226 225 226 221 226 236 255 264 232 209 222
211 223 220 214 214 215 214 217 255 286 277 252 243 229 221 221 213 207 208 209 207 182 187 214 222 228 235 234 233 231 238 238 225 217 220 228 232 234 235 243 241 232 234
214 221 221 223 220 216 217 222 223 231 251 271 271 249 238 229 219 212 205 183 206 200 211 217 222 223 223 225 225 226 234 235 230 228 224 225 227 226 236 242 237 226 227
215 226 225 227 228 225 225 224 225 228 226 236 251 259 246 237 230 220 190 189 208 220 222 221 219 218 219 222 224 224 224 227 227 228 230 225 223 222 238 245 244 239 225
220 235 238 229 231 234 230 226 224 221 221 223 225 229 216 192 214 215 205 210 211 222 224 224 220 215 216 218 216 219 223 231 232 226 232 233 226 221 231 239 239 234 226
223 230 236 238 236 233 230 229 227 221 218 225 231 224 199 202 215 218 215 215 215 219 221 221 221 216 217 217 215 220 221 225 226 227 231 235 234 231 230 228 234 233 226
216 223 224 228 236 236 236 233 228 226 224 229 240 234 215 214 218 222 220 222 222 221 216 210 215 213 207 214 217 215 217 222 228 227 232 233 237 239 237 233 236 238 231
218 225 233 236 235 241 243 235 227 224 221 224 226 220 212 220 219 218 226 230 226 221 213 201 202 217 217 213 224 218 214 224 223 215 218 230 235 235 236 237 240 240 239
217 223 231 237 235 231 232 233 224 221 222 228 228 222 220 222 225 226 227 226 216 211 202 200 205 213 216 210 205 212 219 229 227 218 210 212 219 225 229 236 242 244 244
212 218 224 224 220 223 228 230 229 220 216 222 228 228 226 221 226 232 227 222 213 206 201 199 200 201 199 201 202 210 218 219 223 228 223 216 219 221 222 231 237 245 245
208 210 210 208 208 208 206 210 218 212 214 221 225 220 208 193 189 205 175 182 192 195 197 198 199 186 181 194 209 219 222 218 223 233 229 219 216 223 220 234 243 242 245